Weather History for Venice, Italy

Change the Weather History Date:

Tuesday, November 12, 2013

  Actual Average Record
Temperature  
Mean Temperature 56 °F -  
Max Temperature 62 °F 49 °F 140 °F (2002)
Min Temperature 50 °F 37 °F 37 °F (2003)
Degree Days  
Heating Degree Days 9    
Growing Degree Days 6 (Base 50)    
Moisture  
Dew Point 41 °F    
Average Humidity 59    
Maximum Humidity 76    
Minimum Humidity 44    
Precipitation  
Precipitation 0.00 in 0.10 in - ()
Sea Level Pressure  
Sea Level Pressure 30.12 in    
Wind  
Wind Speed 10 mph ()    
Max Wind Speed 18 mph    
Max Gust Speed -    
Visibility 6.2 miles    
Events      
Averages and records for this station are not official NWS values.
T = Trace of Precipitation, MM = Missing Value Source: Averaged Metar Reports

Daily Weather History Graph

Daily Weather History Graph

Search for Another Location

Airport:

Trip Planner

Search our weather history database for the weather conditions in past years. The results will help you decide how hot, cold, wet, or windy it might be!

Date:

Astronomy

Nov. 12, 2013 Rise Set
Actual Time 7:05 AM CET 4:43 PM CET
Civil Twilight 6:33 AM CET 5:15 PM CET
Nautical Twilight 5:57 AM CET 5:51 PM CET
Astronomical Twilight 5:23 AM CET 6:25 PM CET
Moon 2:02 PM CET (11/12) 1:21 AM CET (11/12)
Length of Visible Light 10h 41m
Length of Day
9h 38m
Waxing Gibbous, 74% of the Moon is Illuminated
Nov 12
Waxing Gibbous
Nov 17
Full
Nov 25
Last Quarter
Dec 3
New
Dec 9
First Quarter

Hourly Weather History & Observations

Time (CET) Temp. Dew Point Humidity Pressure Visibility Wind Dir Wind Speed Gust Speed Precip Events Conditions
12:20 AM 51.8 °F 32.0 °F 47% 30.12 in - NE 8.1 mph - N/A   Clear
12:50 AM 55.4 °F 35.6 °F 47% 30.09 in - NE 16.1 mph - N/A   Clear
1:20 AM 57.2 °F 35.6 °F 44% 30.12 in - ENE 18.4 mph - N/A   Clear
1:50 AM 55.4 °F 35.6 °F 47% 30.12 in - ENE 15.0 mph - N/A   Clear
2:20 AM 55.4 °F 35.6 °F 47% 30.12 in - NE 18.4 mph - N/A   Clear
2:50 AM 55.4 °F 35.6 °F 47% 30.12 in - NE 15.0 mph - N/A   Clear
3:20 AM 55.4 °F 37.4 °F 51% 30.12 in - ENE 15.0 mph - N/A   Clear
3:50 AM 55.4 °F 35.6 °F 47% 30.12 in - NE 13.8 mph - N/A   Clear
4:20 AM 53.6 °F 37.4 °F 54% 30.12 in - NE 11.5 mph - N/A   Clear
4:50 AM 53.6 °F 37.4 °F 54% 30.12 in - NE 12.7 mph - N/A   Clear
5:20 AM 53.6 °F 37.4 °F 54% 30.12 in - NE 15.0 mph - N/A   Clear
5:50 AM 53.6 °F 37.4 °F 54% 30.12 in - NE 13.8 mph - N/A   Clear
6:20 AM 53.6 °F 39.2 °F 58% 30.12 in - NE 13.8 mph - N/A   Clear
6:50 AM 53.6 °F 39.2 °F 58% 30.12 in 6.2 mi NE 13.8 mph - N/A   Scattered Clouds
7:20 AM 53.6 °F 39.2 °F 58% 30.12 in - NE 11.5 mph - N/A   Clear
7:50 AM 53.6 °F 41.0 °F 62% 30.15 in - NE 12.7 mph - N/A   Clear
8:20 AM 55.4 °F 42.8 °F 63% 30.15 in - ENE 3.5 mph - N/A   Clear
8:50 AM 55.4 °F 41.0 °F 58% 30.15 in - NE 12.7 mph - N/A   Clear
9:20 AM 55.4 °F 42.8 °F 63% 30.15 in - ENE 10.4 mph - N/A   Clear
9:50 AM 57.2 °F 41.0 °F 55% 30.15 in - NE 12.7 mph - N/A   Clear
10:20 AM 59.0 °F 41.0 °F 51% 30.15 in - ENE 12.7 mph - N/A   Clear
10:50 AM 59.0 °F 41.0 °F 51% 30.15 in - ENE 8.1 mph - N/A   Clear
11:20 AM 59.0 °F 42.8 °F 55% 30.15 in - ENE 5.8 mph - N/A   Clear
11:50 AM 60.8 °F 42.8 °F 52% 30.15 in - East 6.9 mph - N/A   Clear
12:20 PM 60.8 °F 42.8 °F 52% 30.15 in - ENE 6.9 mph - N/A   Clear
12:50 PM 60.8 °F 42.8 °F 52% 30.15 in - ENE 4.6 mph - N/A   Clear
1:20 PM 60.8 °F 42.8 °F 52% 30.12 in - ENE 10.4 mph - N/A   Clear
1:50 PM 60.8 °F 44.6 °F 55% 30.12 in - ENE 9.2 mph - N/A   Clear
2:20 PM 60.8 °F 44.6 °F 55% 30.12 in - North 11.5 mph - N/A   Clear
2:50 PM 60.8 °F 42.8 °F 52% 30.09 in - ENE 8.1 mph - N/A   Clear
3:20 PM 62.6 °F 46.4 °F 55% 30.12 in - East 5.8 mph - N/A   Clear
3:50 PM 60.8 °F 44.6 °F 55% 30.09 in - East 4.6 mph - N/A   Clear
4:20 PM 59.0 °F 46.4 °F 63% 30.09 in - ENE 4.6 mph - N/A   Clear
4:50 PM 59.0 °F 46.4 °F 63% 30.09 in - East 8.1 mph - N/A   Clear
5:20 PM 57.2 °F 46.4 °F 67% 30.12 in - NE 8.1 mph - N/A   Clear
5:50 PM 57.2 °F 44.6 °F 63% 30.12 in - NE 9.2 mph - N/A   Clear
6:20 PM 57.2 °F 44.6 °F 63% 30.12 in - NE 10.4 mph - N/A   Clear
6:50 PM 55.4 °F 44.6 °F 67% 30.12 in - East 13.8 mph - N/A   Clear
7:20 PM 55.4 °F 46.4 °F 72% 30.12 in - ENE 11.5 mph - N/A   Clear
7:50 PM 55.4 °F 44.6 °F 67% 30.12 in - NNE 6.9 mph - N/A   Clear
8:20 PM 51.8 °F 42.8 °F 71% 30.12 in - North 5.8 mph - N/A   Clear
8:50 PM 51.8 °F 42.8 °F 71% 30.12 in - North 4.6 mph - N/A   Clear
9:20 PM 53.6 °F 42.8 °F 67% 30.12 in - Variable 3.5 mph - N/A   Clear
9:50 PM 51.8 °F 44.6 °F 76% 30.12 in - NNW 6.9 mph - N/A   Clear
10:20 PM 51.8 °F 42.8 °F 71% 30.12 in - NNW 4.6 mph - N/A   Clear
10:50 PM 51.8 °F 44.6 °F 76% 30.09 in - North 4.6 mph - N/A   Clear
11:20 PM 50.0 °F 42.8 °F 76% 30.09 in - Variable 3.5 mph - N/A   Clear
11:50 PM 50.0 °F 42.8 °F 76% 30.09 in - NNW 5.8 mph - N/A   Clear